GW7224 Weather Reports


Display with metric or nautical units.
time (UTC)temp
F
wind
direction
speed
MPH
gust
MPH
rain 1hr
in
rain 24hr
in
rain mn
in
humidity
%
barometer
mb
20260906111014 70 299 4.0 4.0 0.00 0.00 0.00 96 1013.7
20260906110508 70 14 2.0 3.0 0.00 0.00 0.00 96 1013.1
20260906110008 70 40 2.0 2.0 0.00 0.00 0.00 96 1013.0
20260906105503 69 43 0.0 1.0 0.00 0.00 0.00 96 1013.2
20260906104959 69 43 1.0 1.0 0.00 0.00 0.00 96 1013.0
20260906104457 70 48 1.0 1.0 0.00 0.00 0.00 96 1013.0
20260906103957 70 62 1.0 2.0 0.00 0.00 0.00 96 1012.6
20260906103455 69 25 2.0 2.0 0.00 0.00 0.00 96 1012.8
20260906102950 69 33 1.0 2.0 0.00 0.00 0.00 96 1012.8
20260906102451 69 25 1.0 1.0 0.00 0.00 0.00 96 1012.8
20260906101951 69 26 1.0 2.0 0.00 0.00 0.00 96 1012.6
20260906101446 69 29 1.0 1.0 0.00 0.00 0.00 96 1012.9
20260906100941 69 28 1.0 1.0 0.00 0.00 0.00 96 1012.8
20260906100436 69 27 0.0 1.0 0.00 0.00 0.00 96 1012.6
20260906095936 69 28 1.0 1.0 0.00 0.00 0.00 96 1012.6
20260906095431 69 31 1.0 1.0 0.00 0.00 0.00 96 1012.4
20260906094926 69 31 0.0 1.0 0.00 0.00 0.00 96 1012.5
20260906094420 69 32 1.0 1.0 0.00 0.00 0.00 96 1012.5
20260906093916 69 32 0.0 1.0 0.00 0.00 0.00 95 1012.8
20260906093413 69 31 1.0 1.0 0.00 0.00 0.00 95 1012.6
20260906092912 69 31 0.0 0.0 0.00 0.00 0.00 95 1012.6
20260906092412 70 32 0.0 1.0 0.00 0.00 0.00 95 1012.5
20260906091908 70 31 0.0 0.0 0.00 0.00 0.00 95 1012.5
20260906091403 70 31 0.0 0.0 0.00 0.00 0.00 95 1012.4
20260906090900 70 31 0.0 0.0 0.00 0.00 0.00 95 1012.3
20260906090359 70 31 0.0 1.0 0.00 0.00 0.00 95 1012.3
20260906085854 69 33 1.0 1.0 0.00 0.00 0.00 96 1012.1
20260906085353 69 34 1.0 1.0 0.00 0.00 0.00 96 1012.1
20260906084848 69 36 1.0 1.0 0.00 0.00 0.00 96 1012.4
20260906084348 69 67 1.0 1.0 0.00 0.00 0.00 96 1012.1
20260906083842 69 70 0.0 1.0 0.00 0.00 0.00 95 1012.2
20260906083338 69 72 1.0 2.0 0.00 0.00 0.00 95 1012.2
20260906082838 70 79 1.0 1.0 0.00 0.00 0.00 95 1012.3
20260906082333 70 79 0.0 0.0 0.00 0.00 0.00 95 1012.3
20260906081829 70 79 1.0 1.0 0.00 0.00 0.00 94 1012.2
20260906081324 70 79 1.0 1.0 0.00 0.00 0.00 94 1012.2
20260906080820 71 79 1.0 2.0 0.00 0.00 0.00 94 1012.3
20260906080316 70 272 2.0 2.0 0.00 0.00 0.00 95 1012.4
20260906075816 70 285 1.0 1.0 0.00 0.00 0.00 94 1012.4
20260906075315 70 285 2.0 3.0 0.00 0.00 0.00 94 1012.0
20260906074811 70 69 1.0 1.0 0.00 0.00 0.00 94 1012.2
20260906074311 71 70 0.0 0.0 0.00 0.00 0.00 94 1011.9
20260906073810 71 70 0.0 0.0 0.00 0.00 0.00 94 1012.2
20260906073305 71 70 0.0 0.0 0.00 0.00 0.00 94 1012.1
20260906072801 71 70 0.0 0.0 0.00 0.00 0.00 95 1012.1
20260906072256 71 70 0.0 0.0 0.00 0.00 0.00 94 1012.2
20260906071752 71 70 0.0 1.0 0.00 0.00 0.00 94 1012.3
20260906071252 71 69 1.0 1.0 0.00 0.00 0.00 94 1012.3
20260906070749 71 69 0.0 0.0 0.00 0.00 0.00 94 1012.4
20260906070244 71 69 0.0 0.0 0.00 0.00 0.00 94 1012.3
20260906065744 71 69 0.0 0.0 0.00 0.00 0.00 94 1012.5
20260906065239 71 70 0.0 1.0 0.00 0.00 0.00 94 1012.4
20260906064735 71 70 1.0 1.0 0.00 0.00 0.00 94 1012.4
20260906064230 71 69 1.0 1.0 0.00 0.00 0.00 94 1012.4
20260906063725 71 69 0.0 0.0 0.00 0.00 0.00 94 1012.5
20260906063221 71 70 0.0 0.0 0.00 0.00 0.00 94 1012.6
20260906062716 71 69 0.0 0.0 0.00 0.00 0.00 94 1013.0
20260906062215 71 69 0.0 0.0 0.00 0.00 0.00 94 1012.9
20260906061711 71 69 0.0 1.0 0.00 0.00 0.00 93 1012.6
20260906061207 71 69 1.0 1.0 0.00 0.00 0.00 93 1012.8
20260906060702 71 69 1.0 1.0 0.00 0.00 0.00 92 1012.9
20260906060159 72 69 0.0 0.0 0.00 0.00 0.00 92 1012.9
20260906055655 72 69 0.0 0.0 0.00 0.00 0.00 91 1012.9
20260906055150 72 69 0.0 1.0 0.00 0.00 0.00 91 1012.5
20260906054645 72 69 0.0 0.0 0.00 0.00 0.00 91 1013.1
20260906054140 72 70 0.0 0.0 0.00 0.00 0.00 92 1013.0
20260906053637 72 70 0.0 0.0 0.00 0.00 0.00 90 1013.1
20260906053137 73 69 1.0 1.0 0.00 0.00 0.00 89 1012.8
20260906052633 73 57 1.0 2.0 0.00 0.00 0.00 88 1012.9
20260906052129 74 251 0.0 0.0 0.00 0.00 0.00 88 1013.1
20260906051626 74 251 0.0 0.0 0.00 0.00 0.00 86 1013.0
20260906051125 74 251 0.0 1.0 0.00 0.00 0.00 86 1013.1
20260906050621 74 251 0.0 1.0 0.00 0.00 0.00 85 1013.2
20260906050116 74 251 0.0 0.0 0.00 0.00 0.00 86 1013.2
20260906045614 74 251 0.0 0.0 0.00 0.00 0.00 86 1013.4
20260906045110 74 244 1.0 2.0 0.00 0.00 0.00 85 1013.3
20260906044606 74 291 2.0 2.0 0.00 0.00 0.00 85 1013.3
20260906044101 74 59 0.0 1.0 0.00 0.00 0.00 86 1012.8
20260906043557 74 57 2.0 2.0 0.00 0.00 0.00 86 1012.9
20260906043052 74 40 0.0 1.0 0.00 0.00 0.00 86 1013.0
20260906042551 75 40 0.0 1.0 0.00 0.00 0.00 87 1013.0
20260906042046 75 40 0.0 1.0 0.00 0.00 0.00 87 1013.0
20260906041542 75 40 0.0 0.0 0.00 0.00 0.00 85 1013.1
20260906041037 75 40 0.0 0.0 0.00 0.00 0.00 85 1013.0
20260906040532 75 40 0.0 0.0 0.00 0.00 0.00 84 1012.9
20260906040028 75 40 0.0 1.0 0.00 0.00 0.00 84 1012.8
20260906035522 75 66 0.0 1.0 0.00 0.00 0.00 85 1012.6
20260906035019 75 70 0.0 2.0 0.00 0.00 0.00 85 1012.8
20260906034518 75 66 2.0 3.0 0.00 0.00 0.00 86 1012.5
20260906034013 76 69 2.0 2.0 0.00 0.00 0.00 86 1012.4
20260906033508 76 59 0.0 1.0 0.00 0.00 0.00 85 1012.4
20260906033004 76 66 2.0 2.0 0.00 0.00 0.00 85 1012.2
20260906032501 76 54 0.0 1.0 0.00 0.00 0.00 84 1012.2
20260906032000 76 36 2.0 3.0 0.00 0.00 0.00 85 1012.4
20260906031455 75 54 4.0 7.0 0.00 0.00 0.00 89 1012.2
20260906030951 76 61 2.0 3.0 0.00 0.00 0.00 88 1012.1
20260906030445 76 81 0.0 1.0 0.00 0.00 0.00 88 1012.0
20260906025940 77 81 1.0 1.0 0.00 0.00 0.00 87 1012.1
20260906025439 77 81 1.0 1.0 0.00 0.00 0.00 86 1012.2
20260906024938 77 80 1.0 1.0 0.00 0.00 0.00 85 1012.2
20260906024439 77 79 1.0 1.0 0.00 0.00 0.00 87 1012.1
20260906023938 76 79 0.0 0.0 0.00 0.00 0.00 88 1012.3
20260906023435 76 79 0.0 0.0 0.00 0.00 0.00 89 1012.3
20260906022935 77 79 0.0 0.0 0.00 0.00 0.00 88 1012.3
20260906022431 77 79 0.0 0.0 0.00 0.00 0.00 87 1012.2
20260906021926 78 79 0.0 1.0 0.00 0.00 0.00 87 1012.4
20260906021426 78 79 1.0 1.0 0.00 0.00 0.00 86 1011.9
20260906020926 78 80 1.0 0.0 0.00 0.00 0.00 84 1012.0
20260906020421 78 80 0.0 1.0 0.00 0.00 0.00 85 1011.9
20260906015915 78 81 0.0 1.0 0.00 0.00 0.00 87 1011.7
20260906015415 77 76 0.0 0.0 0.00 0.00 0.00 88 1011.8
20260906014914 77 76 0.0 1.0 0.00 0.00 0.00 88 1011.9
20260906014414 78 88 1.0 2.0 0.00 0.00 0.00 88 1012.0
20260906013911 78 87 1.0 2.0 0.00 0.00 0.00 86 1012.1
20260906013406 79 89 0.0 0.0 0.00 0.00 0.00 85 1012.0
20260906012902 79 89 0.0 0.0 0.00 0.00 0.00 84 1011.9
20260906012356 79 89 0.0 0.0 0.00 0.00 0.00 83 1011.7
20260906011856 80 89 0.0 0.0 0.00 0.00 0.00 84 1011.5
20260906011351 80 89 0.0 0.0 0.00 0.00 0.00 83 1011.6
20260906010846 79 89 0.0 1.0 0.00 0.00 0.00 85 1011.4
20260906010342 79 88 0.0 0.0 0.00 0.00 0.00 86 1011.3
20260906005838 80 87 0.0 0.0 0.00 0.00 0.00 84 1011.3
20260906005337 80 88 1.0 1.0 0.00 0.00 0.00 83 1011.2
20260906004836 81 210 1.0 1.0 0.00 0.00 0.00 81 1011.3
20260906004336 82 210 1.0 1.0 0.00 0.00 0.00 79 1011.5
20260906003831 82 211 1.0 1.0 0.00 0.00 0.00 77 1011.1
20260906003327 82 245 1.0 1.0 0.00 0.00 0.00 77 1011.4
20260906002822 82 246 0.0 0.0 0.00 0.00 0.00 75 1011.2
20260906002321 82 246 0.0 0.0 0.00 0.00 0.00 77 1011.5
20260906001817 83 246 0.0 0.0 0.00 0.00 0.00 76 1011.5
20260906001312 83 246 0.0 0.0 0.00 0.00 0.00 75 1011.6
20260906000807 84 246 0.0 0.0 0.00 0.00 0.00 74 1011.6
20260906000303 84 247 1.0 2.0 0.00 0.00 0.00 72 1011.6
20260905235756 85 3 2.0 1.0 0.00 0.00 0.00 66 1011.7
20260905235256 85 5 0.0 0.0 0.00 0.00 0.00 67 1011.7
20260905234752 86 5 0.0 0.0 0.00 0.00 0.00 68 1011.6
20260905234247 86 5 0.0 0.0 0.00 0.00 0.00 68 1011.8
20260905233742 87 5 0.0 0.0 0.00 0.00 0.00 64 1011.9
20260905233242 87 5 0.0 0.0 0.00 0.00 0.00 65 1011.8
20260905232741 87 4 0.0 0.0 0.00 0.00 0.00 64 1012.2
20260905232237 87 4 0.0 0.0 0.00 0.00 0.00 61 1012.1
20260905231733 88 4 0.0 0.0 0.00 0.00 0.00 66 1012.1
20260905231228 88 5 0.0 0.0 0.00 0.00 0.00 63 1012.0
20260905230724 89 5 0.0 0.0 0.00 0.00 0.00 61 1011.9
20260905230222 89 5 0.0 0.0 0.00 0.00 0.00 59 1012.0
20260905225721 90 5 0.0 0.0 0.00 0.00 0.00 60 1012.0
20260905225217 90 5 0.0 0.0 0.00 0.00 0.00 58 1011.7
20260905224716 90 5 1.0 1.0 0.00 0.00 0.00 55 1012.0
20260905224211 91 6 2.0 2.0 0.00 0.00 0.00 54 1011.8
20260905223708 92 21 2.0 2.0 0.00 0.00 0.00 54 1011.8
20260905223204 92 53 2.0 4.0 0.00 0.00 0.00 53 1012.1
20260905222700 92 3 1.0 2.0 0.00 0.00 0.00 55 1011.9
20260905222159 92 16 2.0 2.0 0.00 0.00 0.00 53 1012.0
20260905221654 92 26 1.0 2.0 0.00 0.00 0.00 52 1012.0
20260905221151 92 8 3.0 3.0 0.00 0.00 0.00 51 1012.0
20260905220647 93 349 2.0 2.0 0.00 0.00 0.00 52 1012.0
20260905220143 93 328 4.0 3.0 0.00 0.00 0.00 49 1012.0
20260905215642 93 53 2.0 3.0 0.00 0.00 0.00 49 1011.7
20260905215138 94 24 3.0 4.0 0.00 0.00 0.00 49 1011.9
20260905214634 94 61 3.0 3.0 0.00 0.00 0.00 48 1011.7
20260905214129 94 300 3.0 3.0 0.00 0.00 0.00 50 1011.7
20260905213624 94 328 4.0 6.0 0.00 0.00 0.00 47 1011.6
20260905213119 94 1 2.0 4.0 0.00 0.00 0.00 49 1011.8
20260905212615 94 19 2.0 3.0 0.00 0.00 0.00 48 1011.7
20260905212114 94 335 6.0 8.0 0.00 0.00 0.00 46 1011.8
20260905211609 94 289 1.0 3.0 0.00 0.00 0.00 49 1012.1
20260905211105 94 337 4.0 6.0 0.00 0.00 0.00 47 1011.6
20260905210601 94 348 2.0 6.0 0.00 0.00 0.00 49 1011.7
20260905210055 95 339 6.0 7.0 0.00 0.00 0.00 45 1011.8
20260905205555 94 9 1.0 2.0 0.00 0.00 0.00 51 1011.7
20260905205054 94 289 5.0 7.0 0.00 0.00 0.00 47 1011.8
20260905204549 94 343 2.0 2.0 0.00 0.00 0.00 48 1011.6
20260905204044 94 74 5.0 6.0 0.00 0.00 0.00 46 1011.8
20260905203544 95 320 4.0 6.0 0.00 0.00 0.00 46 1011.8
20260905203039 95 238 2.0 3.0 0.00 0.00 0.00 45 1012.0
20260905202535 95 284 3.0 3.0 0.00 0.00 0.00 46 1012.1
20260905202030 95 15 4.0 4.0 0.00 0.00 0.00 46 1012.2
20260905201526 94 341 1.0 1.0 0.00 0.00 0.00 48 1012.2
20260905201025 94 334 2.0 4.0 0.00 0.00 0.00 48 1012.3
20260905200521 94 344 3.0 6.0 0.00 0.00 0.00 46 1012.3
20260905200021 94 230 2.0 6.0 0.00 0.00 0.00 47 1012.4
20260905195520 95 173 2.0 6.0 0.00 0.00 0.00 45 1012.6
20260905195016 95 241 3.0 3.0 0.00 0.00 0.00 45 1012.4
20260905194516 94 310 2.0 3.0 0.00 0.00 0.00 48 1012.5
20260905194015 94 269 1.0 4.0 0.00 0.00 0.00 48 1012.6
20260905193510 94 277 0.0 2.0 0.00 0.00 0.00 50 1012.8
20260905193005 93 249 2.0 3.0 0.00 0.00 0.00 47 1012.8
20260905192500 93 269 4.0 4.0 0.00 0.00 0.00 47 1012.8
20260905191956 94 324 2.0 4.0 0.00 0.00 0.00 48 1013.1
20260905191455 95 286 2.0 3.0 0.00 0.00 0.00 46 1013.1
20260905190954 94 122 1.0 1.0 0.00 0.00 0.00 46 1013.1
20260905190452 94 211 3.0 6.0 0.00 0.00 0.00 44 1013.1
20260905185951 93 202 1.0 2.0 0.00 0.00 0.00 48 1013.3
20260905185447 93 213 2.0 4.0 0.00 0.00 0.00 45 1013.3
20260905184945 92 256 4.0 4.0 0.00 0.00 0.00 49 1013.2
20260905184440 92 211 2.0 4.0 0.00 0.00 0.00 47 1013.4
20260905183938 92 249 2.0 4.0 0.00 0.00 0.00 47 1013.4
20260905183433 92 271 4.0 6.0 0.00 0.00 0.00 47 1013.6
20260905182929 92 271 4.0 6.0 0.00 0.00 0.00 47 1013.7
20260905182427 92 198 4.0 4.0 0.00 0.00 0.00 48 1013.5
20260905181923 92 237 3.0 6.0 0.00 0.00 0.00 46 1013.3
20260905181418 91 201 4.0 6.0 0.00 0.00 0.00 50 1013.6
20260905180917 91 137 3.0 7.0 0.00 0.00 0.00 49 1014.0
20260905180412 91 192 5.0 7.0 0.00 0.00 0.00 48 1013.8
20260905175912 91 166 1.0 4.0 0.00 0.00 0.00 51 1013.9
20260905175412 91 217 2.0 8.0 0.00 0.00 0.00 50 1014.0
20260905174907 91 225 0.0 3.0 0.00 0.00 0.00 49 1013.9
20260905174403 91 182 4.0 8.0 0.00 0.00 0.00 50 1013.9
20260905173858 90 199 4.0 7.0 0.00 0.00 0.00 49 1014.0
20260905173354 90 195 4.0 4.0 0.00 0.00 0.00 47 1014.1
20260905172849 90 219 3.0 4.0 0.00 0.00 0.00 46 1013.9
20260905172347 90 165 3.0 7.0 0.00 0.00 0.00 45 1014.2
20260905171843 90 179 4.0 6.0 0.00 0.00 0.00 49 1014.4
20260905171340 89 200 5.0 7.0 0.00 0.00 0.00 48 1014.4
20260905170836 89 170 2.0 3.0 0.00 0.00 0.00 54 1014.3
20260905170332 89 248 2.0 3.0 0.00 0.00 0.00 52 1014.5
20260905165831 89 284 2.0 3.0 0.00 0.00 0.00 50 1014.6
20260905165327 88 182 4.0 3.0 0.00 0.00 0.00 52 1014.5
20260905164826 88 204 3.0 3.0 0.00 0.00 0.00 51 1014.7
20260905164321 87 154 6.0 8.0 0.00 0.00 0.00 52 1014.6
20260905163817 87 215 2.0 2.0 0.00 0.00 0.00 54 1014.5
20260905163313 87 205 5.0 6.0 0.00 0.00 0.00 55 1014.5
20260905162809 87 140 6.0 8.0 0.00 0.00 0.00 58 1014.5
20260905162309 87 186 3.0 6.0 0.00 0.00 0.00 55 1014.6
20260905161803 87 224 1.0 6.0 0.00 0.00 0.00 55 1014.7
20260905161302 86 178 4.0 7.0 0.00 0.00 0.00 58 1014.5
20260905160801 86 188 6.0 7.0 0.00 0.00 0.00 58 1014.7
20260905160301 85 180 7.0 8.0 0.00 0.00 0.00 58 1014.7
20260905155756 85 193 4.0 6.0 0.00 0.00 0.00 59 1014.9
20260905155254 85 211 3.0 6.0 0.00 0.00 0.00 61 1015.0
20260905154749 85 199 6.0 8.0 0.00 0.00 0.00 63 1015.0
20260905154245 84 157 4.0 4.0 0.00 0.00 0.00 62 1015.2
20260905153740 84 160 2.0 4.0 0.00 0.00 0.00 61 1015.2
20260905153236 84 203 6.0 7.0 0.00 0.00 0.00 59 1015.3
20260905152731 84 137 2.0 3.0 0.00 0.00 0.00 63 1015.1
20260905152230 83 137 3.0 4.0 0.00 0.00 0.00 64 1015.4
20260905151730 84 190 4.0 6.0 0.00 0.00 0.00 61 1015.1
20260905151227 83 166 2.0 6.0 0.00 0.00 0.00 65 1015.3
20260905150726 83 180 7.0 9.0 0.00 0.00 0.00 66 1015.5
20260905150226 82 176 4.0 6.0 0.00 0.00 0.00 66 1015.2
20260905145723 82 148 2.0 6.0 0.00 0.00 0.00 64 1015.3
20260905145218 82 150 3.0 7.0 0.00 0.00 0.00 64 1015.5
20260905144717 82 187 6.0 9.0 0.00 0.00 0.00 63 1015.7
20260905144212 82 116 4.0 4.0 0.00 0.00 0.00 67 1015.3
20260905143711 80 152 2.0 3.0 0.00 0.00 0.00 70 1015.3
20260905143206 80 138 1.0 2.0 0.00 0.00 0.00 71 1015.3
20260905142704 80 68 2.0 3.0 0.00 0.00 0.00 70 1015.8
20260905142205 81 79 4.0 6.0 0.00 0.00 0.00 67 1015.7
20260905141700 82 80 2.0 6.0 0.00 0.00 0.00 68 1015.6
20260905141156 80 159 2.0 3.0 0.00 0.00 0.00 69 1015.7
20260905140651 79 228 3.0 4.0 0.00 0.00 0.00 71 1015.5
20260905140151 79 156 3.0 4.0 0.00 0.00 0.00 75 1015.8
20260905135646 78 131 3.0 7.0 0.00 0.00 0.00 75 1015.8
20260905135141 77 183 4.0 6.0 0.00 0.00 0.00 76 1015.6
20260905134636 76 116 3.0 7.0 0.00 0.00 0.00 78 1015.7
20260905134134 75 119 4.0 13.0 0.00 0.00 0.00 81 1015.8
20260905133630 75 68 5.0 8.0 0.00 0.00 0.00 82 1015.7
20260905133130 74 66 5.0 7.0 0.00 0.00 0.00 83 1015.9
20260905132630 74 358 5.0 9.0 0.00 0.00 0.00 84 1015.8
20260905132125 74 71 6.0 16.0 0.00 0.00 0.00 83 1015.9
20260905131620 74 86 7.0 11.0 0.00 0.00 0.00 84 1015.9
20260905131115 73 76 11.0 18.0 0.00 0.00 0.00 83 1016.1
20260905130615 73 65 11.0 14.0 0.00 0.00 0.00 83 1016.2
20260905130114 73 68 5.0 15.0 0.00 0.00 0.00 83 1016.1
20260905125609 74 48 9.0 13.0 0.00 0.00 0.00 82 1016.0
20260905125104 74 65 4.0 9.0 0.00 0.00 0.00 80 1016.0
20260905124601 74 50 9.0 15.0 0.00 0.00 0.00 79 1015.9
20260905124057 75 43 9.0 13.0 0.00 0.00 0.00 79 1016.1
20260905123552 75 33 6.0 6.0 0.00 0.00 0.00 80 1015.8
20260905123049 75 66 4.0 6.0 0.00 0.00 0.00 79 1015.2
20260905122548 74 34 1.0 3.0 0.00 0.00 0.00 80 1015.2
20260905122043 74 51 2.0 4.0 0.00 0.00 0.00 81 1015.2
20260905121544 74 49 4.0 4.0 0.00 0.00 0.00 81 1015.1
20260905121039 74 101 4.0 4.0 0.00 0.00 0.00 83 1015.0
20260905120538 74 46 3.0 4.0 0.00 0.00 0.00 83 1015.4
20260905120033 74 54 4.0 10.0 0.00 0.00 0.00 83 1015.2
20260905115532 74 43 6.0 7.0 0.00 0.00 0.00 84 1015.5
20260905115027 74 59 4.0 6.0 0.00 0.00 0.00 85 1015.6
20260905114526 74 32 2.0 2.0 0.00 0.00 0.00 83 1015.2
20260905114026 74 35 2.0 3.0 0.00 0.00 0.00 83 1015.0
20260905113521 75 45 3.0 4.0 0.00 0.00 0.00 83 1015.4
20260905113016 75 42 4.0 9.0 0.00 0.00 0.00 82 1014.8
20260905112511 75 76 3.0 6.0 0.00 0.00 0.00 83 1014.8
20260905112007 76 56 6.0 10.0 0.00 0.00 0.00 82 1014.7